Weather History for Cushing, OK

Change the Weather History Date:

Wednesday, December 25, 2013

  Actual Average Record
Temperature  
Mean Temperature 35 °F -  
Max Temperature 44 °F 43 °F 73 °F (1950)
Min Temperature 26 °F 22 °F -3 °F (1983)
Degree Days  
Heating Degree Days 30    
Moisture  
Dew Point 31 °F    
Average Humidity 97    
Maximum Humidity 100    
Minimum Humidity 71    
Precipitation  
Precipitation 0.04 in - - ()
Sea Level Pressure  
Sea Level Pressure 30.36 in    
Wind  
Wind Speed 2 mph (NNW)    
Max Wind Speed 9 mph    
Max Gust Speed -    
Visibility 5 miles    
Events Fog    
Averages and records for this station are not official NWS values.
T = Trace of Precipitation, MM = Missing Value Source: NWS Daily Summary

Daily Weather History Graph

Daily Weather History Graph

Search for Another Location

Airport:

Trip Planner

Search our weather history database for the weather conditions in past years. The results will help you decide how hot, cold, wet, or windy it might be!

Date:

Astronomy

Dec. 25, 2013 Rise Set
Actual Time 7:35 AM CST 5:19 PM CST
Civil Twilight 7:07 AM CST 5:47 PM CST
Nautical Twilight 6:34 AM CST 6:19 PM CST
Astronomical Twilight 6:03 AM CST 6:51 PM CST
Moon 12:15 AM CST (12/25) 12:14 PM CST (12/25)
Length of Visible Light 10h 40m
Length of Day
9h 43m
Waning Gibbous, 48% of the Moon is Illuminated
Dec 25
Waning Gibbous
Jan 1
New
Jan 7
First Quarter
Jan 15
Full
Jan 23
Last Quarter

Hourly Weather History & Observations

Time (CST) Temp. Windchill Dew Point Humidity Pressure Visibility Wind Dir Wind Speed Gust Speed Precip Events Conditions
12:15 AM 28.4 °F - 28.4 °F 100% 30.26 in 5.0 mi Calm Calm - N/A   Clear
12:35 AM 28.4 °F - 28.4 °F 100% 30.26 in 5.0 mi Calm Calm - N/A   Clear
12:55 AM 28.4 °F - 28.4 °F 100% 30.27 in 5.0 mi Calm Calm - N/A   Clear
1:15 AM 28.4 °F 24.6 °F 28.4 °F 100% 30.27 in 5.0 mi North 3.5 mph - N/A   Clear
1:35 AM 26.6 °F - 26.6 °F 100% 30.28 in 5.0 mi Calm Calm - N/A   Clear
1:55 AM 26.6 °F - 26.6 °F 100% 30.28 in 5.0 mi Calm Calm - N/A   Clear
2:15 AM 26.6 °F - 26.6 °F 100% 30.28 in 4.0 mi Calm Calm - N/A   Clear
2:35 AM 26.6 °F 21.2 °F 26.6 °F 100% 30.28 in 4.0 mi NW 4.6 mph - N/A   Clear
2:55 AM 26.6 °F - 26.6 °F 100% 30.29 in 0.5 mi Calm Calm - N/A Fog Light Freezing Fog
3:15 AM 26.6 °F 19.1 °F 26.6 °F 100% 30.30 in 0.5 mi North 6.9 mph - N/A Fog Light Freezing Fog
3:35 AM 26.6 °F 21.2 °F 26.6 °F 100% 30.30 in 0.5 mi NNW 4.6 mph - N/A Fog Light Freezing Fog
3:55 AM 26.6 °F - 26.6 °F 100% 30.30 in 0.5 mi Calm Calm - N/A Fog Light Freezing Fog
4:15 AM 28.4 °F - 28.4 °F 100% 30.29 in 0.5 mi Calm Calm - N/A Fog Light Freezing Fog
4:35 AM 28.4 °F - 28.4 °F 100% 30.30 in 0.2 mi Calm Calm - N/A Fog Light Freezing Fog
4:55 AM 28.4 °F 24.6 °F 28.4 °F 100% 30.30 in 0.2 mi North 3.5 mph - N/A Fog Light Freezing Fog
5:15 AM 28.4 °F 23.3 °F 28.4 °F 100% 30.30 in 0.2 mi North 4.6 mph - N/A Fog Light Freezing Fog
5:35 AM 28.4 °F 23.3 °F 28.4 °F 100% 30.31 in 0.2 mi North 4.6 mph - N/A Fog Light Freezing Fog
5:55 AM 28.4 °F - 28.4 °F 100% 30.32 in 0.5 mi Calm Calm - N/A Fog Light Freezing Fog
6:15 AM 30.2 °F - 30.2 °F 100% 30.32 in 0.5 mi Calm Calm - N/A Fog Light Freezing Fog
6:35 AM 30.2 °F - 30.2 °F 100% 30.32 in 0.5 mi Calm Calm - N/A Fog Light Freezing Fog
6:55 AM 30.2 °F - 30.2 °F 100% 30.33 in 0.8 mi Calm Calm - N/A   Overcast
7:15 AM 30.2 °F - 30.2 °F 100% 30.34 in 0.8 mi Calm Calm - N/A   Overcast
7:35 AM 30.2 °F - 30.2 °F 100% 30.35 in 0.8 mi Calm Calm - N/A   Overcast
7:55 AM 30.2 °F 25.4 °F 30.2 °F 100% 30.36 in 0.2 mi North 4.6 mph - N/A Fog Light Freezing Fog
8:15 AM 32.0 °F 26.4 °F 32.0 °F 100% 30.36 in 0.5 mi NNW 5.8 mph - N/A Fog Light Freezing Fog
8:35 AM 32.0 °F 26.4 °F 32.0 °F 100% 30.37 in 0.5 mi NNW 5.8 mph - N/A Fog Light Freezing Fog
8:55 AM 32.0 °F 27.5 °F 32.0 °F 100% 30.38 in 0.5 mi North 4.6 mph - N/A Fog Light Freezing Fog
9:15 AM 32.0 °F - 32.0 °F 100% 30.38 in 1.0 mi Calm Calm - N/A   Overcast
9:35 AM 32.0 °F 28.7 °F 32.0 °F 100% 30.38 in 1.5 mi North 3.5 mph - N/A   Overcast
9:55 AM 32.0 °F 27.5 °F 32.0 °F 100% 30.39 in 1.8 mi North 4.6 mph - N/A   Overcast
10:15 AM 32.0 °F 28.7 °F 32.0 °F 100% 30.40 in 2.0 mi NNW 3.5 mph - 0.01 in   Overcast
10:35 AM 33.8 °F 28.6 °F 33.8 °F 100% 30.40 in 2.0 mi NNW 5.8 mph - 0.01 in   Overcast
10:55 AM 33.8 °F 28.6 °F 33.8 °F 100% 30.40 in 2.5 mi NNW 5.8 mph - 0.03 in   Overcast
11:15 AM 35.6 °F 31.7 °F 35.6 °F 100% 30.40 in 2.5 mi NNW 4.6 mph - 0.01 in   Overcast
11:35 AM 35.6 °F 31.7 °F 35.6 °F 100% 30.40 in 2.5 mi North 4.6 mph - 0.01 in   Overcast
11:55 AM 35.6 °F 30.7 °F 35.6 °F 100% 30.40 in 3.0 mi NNW 5.8 mph - 0.01 in   Overcast
12:15 PM 35.6 °F 31.7 °F 35.6 °F 100% 30.39 in 3.0 mi NW 4.6 mph - N/A   Overcast
12:35 PM 35.6 °F 32.8 °F 35.6 °F 100% 30.39 in 3.0 mi NNW 3.5 mph - N/A   Overcast
12:55 PM 35.6 °F 30.7 °F 35.6 °F 100% 30.38 in 3.0 mi NNW 5.8 mph - N/A   Overcast
1:15 PM 35.6 °F 30.7 °F 35.6 °F 100% 30.38 in 3.0 mi NNW 5.8 mph - N/A   Overcast
1:35 PM 35.6 °F 30.7 °F 35.6 °F 100% 30.38 in 4.0 mi North 5.8 mph - N/A   Overcast
1:55 PM 37.4 °F 33.8 °F 37.4 °F 100% 30.38 in 5.0 mi North 4.6 mph - N/A   Overcast
2:15 PM 39.2 °F 35.0 °F 37.4 °F 93% 30.38 in 7.0 mi NNW 5.8 mph - N/A   Mostly Cloudy
2:35 PM 41.0 °F 36.4 °F 37.4 °F 87% 30.37 in 10.0 mi NNW 6.9 mph - N/A   Scattered Clouds
2:55 PM 41.0 °F 35.2 °F 35.6 °F 81% 30.37 in 10.0 mi NNW 9.2 mph - N/A   Clear
3:15 PM 42.8 °F 40.1 °F 37.4 °F 81% 30.38 in 10.0 mi NW 4.6 mph - N/A   Clear
3:35 PM 42.8 °F 41.1 °F 37.4 °F 81% 30.37 in 10.0 mi NNW 3.5 mph - N/A   Clear
3:55 PM 44.6 °F - 35.6 °F 71% 30.37 in 10.0 mi Calm Calm - N/A   Clear
4:15 PM 44.6 °F 41.4 °F 35.6 °F 71% 30.37 in 10.0 mi NNW 5.8 mph - N/A   Clear
4:35 PM 42.8 °F 38.0 °F 35.6 °F 76% 30.38 in 10.0 mi NNW 8.1 mph - N/A   Clear
4:55 PM 41.0 °F - 33.8 °F 76% 30.38 in 10.0 mi Calm Calm - N/A   Clear
5:15 PM 37.4 °F - 32.0 °F 81% 30.38 in 10.0 mi Calm Calm - N/A   Clear
5:35 PM 35.6 °F - 32.0 °F 87% 30.38 in 10.0 mi Calm Calm - N/A   Clear
5:55 PM 32.0 °F - 30.2 °F 93% 30.39 in 10.0 mi Calm Calm - N/A   Clear
6:15 PM 32.0 °F - 30.2 °F 93% 30.39 in 10.0 mi Calm Calm - N/A   Clear
6:35 PM 30.2 °F - 28.4 °F 93% 30.40 in 7.0 mi Calm Calm - N/A   Clear
6:55 PM 28.4 °F - 28.4 °F 100% 30.39 in 5.0 mi Calm Calm - N/A   Clear
7:15 PM 30.2 °F - 30.2 °F 100% 30.40 in 10.0 mi Calm Calm - N/A   Clear
7:35 PM 30.2 °F - 30.2 °F 100% 30.40 in 10.0 mi Calm Calm - N/A   Clear
7:55 PM 30.2 °F - 30.2 °F 100% 30.40 in 10.0 mi Calm Calm - N/A   Clear
8:15 PM 30.2 °F - 30.2 °F 100% 30.40 in 10.0 mi Calm Calm - N/A   Clear
8:35 PM 30.2 °F - 30.2 °F 100% 30.41 in 10.0 mi Calm Calm - N/A   Clear
8:55 PM 32.0 °F - 32.0 °F 100% 30.41 in 10.0 mi Calm Calm - N/A   Clear
9:15 PM 30.2 °F - 30.2 °F 100% 30.41 in 10.0 mi Calm Calm - N/A   Clear
9:35 PM 28.4 °F - 28.4 °F 100% 30.41 in 5.0 mi Calm Calm - N/A   Clear
9:55 PM 28.4 °F - 28.4 °F 100% 30.41 in 7.0 mi Calm Calm - N/A   Clear
10:15 PM 30.2 °F - 30.2 °F 100% 30.41 in 7.0 mi Calm Calm - N/A   Clear
10:35 PM 30.2 °F - 30.2 °F 100% 30.42 in 7.0 mi Calm Calm - N/A   Clear
10:55 PM 30.2 °F - 30.2 °F 100% 30.42 in 7.0 mi Calm Calm - N/A   Clear
11:15 PM 28.4 °F - 28.4 °F 100% 30.42 in 7.0 mi Calm Calm - N/A   Clear
11:35 PM 28.4 °F - 28.4 °F 100% 30.42 in 5.0 mi Calm Calm - N/A   Clear
11:55 PM 28.4 °F - 28.4 °F 100% 30.41 in 5.0 mi Calm Calm - N/A   Clear